Regional Weather Roundup
Issued by NWS

Home | Current Version | Previous Version | Graphics & Text | Print | Product List | Glossary On
Versions: 1 2 3 4 5 6 7 8 9 10 11 12 13 14 15 16 17 18 19 20 21 22 23 24 25 26 27 28 29 30 31 32 33 34 35 36 37 38 39 40 41 42 43 44 45 46 47 48 49 50
168
ASUS43 KLOT 170404
RWRIL

ILLINOIS REGIONAL WEATHER ROUNDUP
NATIONAL WEATHER SERVICE CHICAGO/ROMEOVILLE IL
1100 PM CDT MON OCT 16 2017

NOTE: "FAIR" INDICATES FEW OR NO CLOUDS BELOW 12,000 FEET WITH NO
SIGNIFICANT WEATHER AND/OR OBSTRUCTIONS TO VISIBILITY.

* THESE STATIONS ARE NOT UNDER NWS QUALITY CONTROL. THEY ALSO MAY NOT
  REPORT WEATHER SUCH AS PRECIPITATION OR FOG.

ILZ001-002-007-009-015-016-024-170500-
NORTHWEST ILLINOIS

CITY           SKY/WX    TMP DP  RH WIND       PRES   REMARKS
MOLINE         CLEAR     53  37  54 S7        30.20S
STERLING*      CLEAR     49  39  68 CALM        N/A
SAVANNA*       CLEAR     45  39  79 S5        30.19S
$$

ILZ003-004-008-010-011-017-018-170500-
NORTH CENTRAL ILLINOIS

CITY           SKY/WX    TMP DP  RH WIND       PRES   REMARKS
ROCKFORD       CLEAR     45  38  76 S6        30.21S
FREEPORT*      CLEAR     51  36  57 SW8       30.19F
ROCHELLE*      CLEAR     41  39  91 S5        30.21S
$$

ILZ005-006-012>014-019>023-170500-
NORTHEAST ILLINOIS

CITY           SKY/WX    TMP DP  RH WIND       PRES   REMARKS
CHICAGO-OHARE  CLEAR     51  38  60 SW8       30.20S
CHICAGO-MIDWAY CLEAR     51  40  65 SW6       30.22R
AURORA         CLEAR     48  38  68 S6        30.22S
LANSING*       CLEAR     45  40  83 SW3       30.23S
JOLIET*        CLEAR     44  42  95 CALM      30.23S
WAUKEGAN       CLEAR     48  39  71 SW6       30.19S
DUPAGE AIRPORT CLEAR     48  39  71 S3        30.20S
KANKAKEE*      CLEAR     49  37  64 SW6       30.25F
WHEELING       CLEAR     48  42  80 SE3       30.22S
NORTHERLY ISL    N/A     55  35  47 S6          N/A
$$

LMZ740>746-170500-
SOUTHERN LAKE MICHIGAN

STATION/POSITION SKY/WX   TEMP    WIND        PRES    VSBY  WAVE
                          AIR SEA DIR/SP/G                  HT/PER
                          (F)     (DEG/KT/KT) (MB)    (MI)  (FT/S)
SOUTHERN BUOY              60 62  250/ 14/ 17 1022.3          2/ 4
WILMETTE HARBOR            55 58  210/ 10/ 12   N/A           1/ 2
HARRISON CRIB              59     200/ 10/ 11   N/A
BURNHAM HARBOR             55     210/  5/  7   N/A
CALUMET HARBOR             53     190/  3/  4 1022.6F
BURNS HARBOR               51     190/  8/ 11 1024.0S
MICHIGAN CITY              54     170/ 10/ 12   N/A
MICHIGAN CITY 6N           55 58  200/ 10/ 12   N/A           2/ 3
ST. JOSEPH                 55 58  210/ 10/ 12 1023.7F         2/ 3
$$

ILZ025>027-034>036-040-047-049-050-058-095>099-170500-
WEST-CENTRAL ILLINOIS

CITY           SKY/WX    TMP DP  RH WIND       PRES   REMARKS
QUINCY         CLEAR     49  38  65 S8        30.26S
GALESBURG*     CLEAR     47  38  72 S5        30.24F
MACOMB*        CLEAR     46  38  74 SW6       30.26F
JACKSONVILLE*  CLEAR     50  39  65 S5        30.27S
$$

ILZ028>032-037-038-041>044-048-051>054-059>061-170500-
CENTRAL ILLINOIS

CITY           SKY/WX    TMP DP  RH WIND       PRES   REMARKS
BLOOMINGTON    CLEAR     46  37  71 SW7       30.27S
DECATUR        CLEAR     47  38  71 SW7       30.29S
PEORIA         CLEAR     49  40  71 SW3       30.25S
LACON*         CLEAR     48  39  72 S3        30.23F
LINCOLN*       CLEAR     45  39  79 CALM      30.27S
SPRINGFIELD    CLEAR     50  41  71 S8        30.28S
TAYLORVILLE    CLEAR     46  39  78 S7        30.30S
$$

ILZ033-039-045-046-055>057-062-063-170500-
EAST-CENTRAL ILLINOIS

CITY           SKY/WX    TMP DP  RH WIND       PRES   REMARKS
CHAMPAIGN      CLEAR     45  38  76 S8        30.29S
DANVILLE*      CLEAR     46  38  73 SW6       30.26S
MATTOON        CLEAR     51  40  65 S6        30.30R
PARIS*         CLEAR     43  38  84 S6        30.31S
$$

ILZ079-100>102-170500-
SOUTHWEST ILLINOIS

CITY           SKY/WX    TMP DP  RH WIND       PRES   REMARKS
BELLEVILLE     CLEAR     45  42  87 CALM      30.31R
CAHOKIA*       CLEAR     45  39  79 CALM      30.31S
SPARTA*        CLEAR     45  41  86 CALM      30.33S
$$

ILZ064>066-069>071-074>076-080>082-084>086-088>090-092>094-170500-
SOUTH-CENTRAL ILLINOIS

CITY           SKY/WX    TMP DP  RH WIND       PRES   REMARKS
CARBONDALE     CLEAR     42  41  96 CALM      30.33S
MARION         CLEAR     46  45  98 CALM      30.34S
MT. VERNON     CLEAR     41  41 100 CALM      30.33S
CENTRALIA*     CLEAR     42  40  95 CALM      30.32S
METROPOLIS*    CLEAR     42  40  92 CALM      30.34S
$$

ILZ067-068-072-073-078-083-087-091-170500-
SOUTHEAST ILLINOIS

CITY           SKY/WX    TMP DP  RH WIND       PRES   REMARKS
LAWRENCEVILLE  CLEAR    N/A N/A N/A CALM      30.33R
FLORA*         CLEAR     46  42  86 CALM      30.33S
FAIRFIELD*     CLEAR     45  42  89 CALM      30.32S
HARRISBURG*    CLEAR     42  40  95 CALM      30.34S
ROBINSON*      CLEAR     44  40  86 CALM      30.32F
CARMI*         CLEAR     41  40  95 CALM      30.33R
$$

ABBREVIATIONS USED IN REMARKS
   TC - TEMPERATURE IN CELSIUS
  WCI - WIND CHILL INDEX
   HX - HEAT INDEX
  VSB - VISIBILITY
$$





USA.gov is the U.S. government's official web portal to all federal, state and local government web resources and services.